Change the Weather History Date:

Tuesday, March 26, 2013

  Actual Average Record
Temperature  
Mean Temperature 37 °F 57 °F  
Max Temperature 42 °F 69 °F 86 °F (2007)
Min Temperature 32 °F 45 °F 21 °F (1955)
Degree Days  
Heating Degree Days 28    
Month to date heating degree days 387  
Since 1 July heating degree days 2450  
Moisture  
Dew Point 23 °F    
Average Humidity 58    
Maximum Humidity 72    
Minimum Humidity 43    
Precipitation  
Precipitation 0.00 in 0.15 in 2.54 in (1993)
Month to date precipitation 3.64 4.21  
Year to date precipitation 17.59 13.81  
Sea Level Pressure  
Sea Level Pressure 30.28 in    
Wind  
Wind Speed 7 mph (WNW)    
Max Wind Speed 14 mph    
Max Gust Speed 20 mph    
Visibility 10 miles    
Events      
T = Trace of Precipitation, MM = Missing Value Source: NWS Daily Summary

Daily Weather History Graph

Daily Weather History Graph

Search for Another Location

Airport or City:

Trip Planner

Search our weather history database for the weather conditions in past years. The results will help you decide how hot, cold, wet, or windy it might be!

Date:

Astronomy

Mar. 26, 2013 Rise Set
Actual Time 6:38 AM CDT 6:59 PM CDT
Civil Twilight 6:13 AM CDT 7:24 PM CDT
Nautical Twilight 5:44 AM CDT 7:53 PM CDT
Astronomical Twilight 5:15 AM CDT 8:23 PM CDT
Moon 6:35 PM CDT (3/26) 5:54 AM CDT (3/26)
Length of Visible Light 13h 10m
Length of Day
12h 21m
Waxing Gibbous, 99% of the Moon is Illuminated
Mar 26
Waxing Gibbous
Mar 27
Full
Apr 2
Last Quarter
Apr 10
New
Apr 18
First Quarter

Hourly Weather History & Observations

Time (CDT) Temp. Windchill Dew Point Humidity Pressure Visibility Wind Dir Wind Speed Gust Speed Precip Events Conditions
1:53 AM 35.1 °F 28.6 °F 23.0 °F 61% 30.18 in 10.0 mi West 8.1 mph - N/A   Overcast
2:53 AM 34.0 °F 27.2 °F 23.0 °F 64% 30.17 in 10.0 mi West 8.1 mph - N/A   Mostly Cloudy
3:53 AM 32.0 °F 25.6 °F 24.1 °F 73% 30.17 in 10.0 mi WSW 6.9 mph - N/A   Partly Cloudy
4:53 AM 32.0 °F 27.5 °F 24.1 °F 73% 30.17 in 10.0 mi WSW 4.6 mph - N/A   Mostly Cloudy
5:53 AM 32.0 °F 26.4 °F 24.1 °F 73% 30.19 in 10.0 mi WSW 5.8 mph - N/A   Overcast
6:53 AM 32.0 °F 25.6 °F 25.0 °F 75% 30.22 in 10.0 mi WSW 6.9 mph - N/A   Overcast
7:53 AM 32.0 °F 25.6 °F 25.0 °F 75% 30.24 in 10.0 mi WSW 6.9 mph - N/A   Overcast
8:53 AM 35.1 °F 29.3 °F 25.0 °F 67% 30.26 in 10.0 mi WSW 6.9 mph - N/A   Overcast
9:53 AM 36.0 °F 27.5 °F 23.0 °F 59% 30.27 in 10.0 mi West 12.7 mph 19.6 mph N/A   Overcast
11:53 AM 39.0 °F 31.8 °F 21.9 °F 50% 30.30 in 10.0 mi WNW 11.5 mph 17.3 mph N/A   Overcast
12:53 PM 39.0 °F 32.3 °F 23.0 °F 53% 30.30 in 10.0 mi West 10.4 mph 18.4 mph N/A   Overcast
1:53 PM 39.9 °F 32.5 °F 21.9 °F 49% 30.30 in 10.0 mi WNW 12.7 mph 18.4 mph N/A   Overcast
2:53 PM 41.0 °F 34.7 °F 21.9 °F 47% 30.30 in 10.0 mi NW 10.4 mph 17.3 mph N/A   Overcast
3:53 PM 42.1 °F 37.7 °F 21.9 °F 45% 30.30 in 10.0 mi West 6.9 mph 16.1 mph N/A   Overcast
4:53 PM 41.0 °F 35.8 °F 21.9 °F 47% 30.30 in 10.0 mi NW 8.1 mph - N/A   Overcast
5:53 PM 41.0 °F 39.0 °F 23.0 °F 49% 30.32 in 10.0 mi NW 3.5 mph - N/A   Overcast
6:53 PM 39.9 °F 35.1 °F 23.0 °F 51% 30.33 in 10.0 mi NW 6.9 mph - N/A   Overcast
7:53 PM 39.9 °F 35.1 °F 23.0 °F 51% 30.34 in 10.0 mi West 6.9 mph - N/A   Overcast
8:53 PM 39.9 °F 36.7 °F 24.1 °F 53% 30.35 in 10.0 mi Variable 4.6 mph - N/A   Overcast
9:53 PM 39.0 °F 35.7 °F 23.0 °F 53% 30.37 in 10.0 mi NNW 4.6 mph - N/A   Mostly Cloudy
10:53 PM 39.0 °F 35.7 °F 23.0 °F 53% 30.38 in 10.0 mi NW 4.6 mph - N/A   Overcast
11:53 PM 37.9 °F - 21.9 °F 53% 30.37 in 10.0 mi Calm Calm - N/A   Mostly Cloudy